"Pseudo-MPEC" for P10R1q1

Created 2019 Sep 12 16:07:14 UT using Find_Orb

Click here for an explanation of pseudo-MPECs

 
 Astrometry: 
     P10R1q1  C2019 05 29MOA*F987#o9:WQS/GW-x7p+)8[U^IP1xqxd.5E1^^KoiX$651hL\F51
     P10R1q1  C2019 05 29s/t.?XWoi/A_-_mv*$[B)P2b/QtkXVgPM`.*0RnQ7Uj_,Ocgqmq]F51
     P10R1q1  C2019 05 29/``UQ1o`bvFJ[VVOaH^,-j[J1,=)jc*A5_*^yF[p0'ErO)X\Nm,_F51
     P10R1q1  C2019 05 29y$BC^`M%Xeb!.\YRO`w!5ZYKbL1H%iDIN*PScmr%n74*/m68-39vF51
     P10R1q1  C2019 06 01GL!0R22X0[P;1]XXV]GK0VrFI%3bU5iVyAieSEuhOj22B:9ie#^$F51
     P10R1q1  C2019 06 01I=kesTOYPrD)qtrFdL3g8U'QEF/Astrometryy^3H$3O+hXdrQc!F51
     P10R1q1  C2019 06 01H]MI!S\Bredacted;lk#wjJ,i.?kdD%9)GrG?IdtKGN#UdEG0IEMF51
     P10R1q1  C2019 06 01QD[K5Fo:9R;1SZ4/:e1BBf-hh=k3q;SiQS8EmDa$xum*-[oO$\6FF51
     P10R1q1  C2019 07 28$-7k%U/@.SKbEqUD23BaZ8lAMaq+wa+!oBlNQVH`ct.E1,1x(rY@F51
     P10R1q1  C2019 07 28HZK-W393\[Y0g52MR,);+:GlPiKJ-rgQys2T.Eu5QHg7+(wy*mlZF51
     P10R1q1  C2019 07 28\q^jwWW)70!0v0B(n1YpxK[!?oGSR?7vpnSy_UI:?B6G6G[,,.[.F51
     P10R1q1  C2019 07 28dTW1-/*D+!m9TRWcVK(xbPh/1N/q7DY!x6f+q*_rwx)/j95rkwHYF51
     P10R1q1  C2019 07 28`Y.JPEncclickGf,]6_/g86q!06herexg!5(4wR?B(vG(c.\DvdfF51
     P10R1q1  C2019 07 28hT7iZGZ2#!3m)Hj5gg6Ic7REh[DE0,yGP3Hdy?gsI5c8VPN%nf1tF51
     P10R1q1  C2019 07 28eT//rTsY-@/tCstI8aB;P_T`6\?^H+Xh_Bw1Pqj8ky24L`7?!Y4QF51
     P10R1q1  C2019 07 28?Bk/%1m'p%oU!mfRWjc0x7for=5VIDexplanationJBg;+lRsv1CF51
     P10R1q1  C2019 08 28+3jre.)UqmWI*t9:m_=^LXir9Ak5RhueXGPfP_8wq;(E.v8J[U.aF51
     P10R1q1  C2019 08 28hQY[L%JYmEDLlOlv4^t+V+bRC3hSuOAMcVyhX5LWa`.oNli4Fy?/F51
     P10R1q1  C2019 08 28+bBs;q#6D@lx.s0CyA_q[mf09UD`Tco`%k3ubjea029+#^yUUZBjF51
     P10R1q1  C2019 08 28;wh!,+JF1o3`2$KM4]f-BC#BX6W4XGO/6Q;uU;,KOF]SLdAc*N,MF51
     P10R1q1 |C2019 09 01+fJ='Q4('D29:AUl^!)7Mm26Q;v%F=)ds0o.8vR1bE%*YP^44Oa[807
     P10R1q1 |C2019 09 01bR3W(l#yuAs_7[Qggb*2Ah3UKi,U+hq7UN?GQ?vMl[M2+:OiLJW9807
     P10R1q1 |C2019 09 01%P?I\tT$kk3?dZJ]0wOk;VX!J-jwWj7Rc`h]nm(9ZG#oL;%#jqs!807
     P10R1q1 KC2019 09 06.36861 21 15 27.11 +09 06 47.7    ~96AM 22.0 RoNEOCP291
     P10R1q1 KC2019 09 06.38792 21 15 26.87 +09 06 43.7    ~96AM 22.3 RoNEOCP291
     P10R1q1 KC2019 09 06.40724 21 15 26.63 +09 06 39.9    ~96AM 22.1 RoNEOCP291

Station data:
(291) LPL/Spacewatch II  (N31.961669 W111.599905)  US/Arizona.  Observers J.
   V. Scotti, R. S. McMillan. 1.8-m f/2.7 reflector + CCD.
(807) Cerro Tololo Observatory, La Serena  (S30.169136 W70.805900)  Chile.
(F51) Pan-STARRS 1, Haleakala  (N20.707235 W156.255910)  US/Hawaii.
   Observers N. Primak, A. Schultz, S. Watters, J. Thiel, T. Goggia. Measurer
   PS1 Science Consortium. 1.8-m Ritchey-Chrétien + CCD.

Orbital elements:  P10R1q1
   Perihelion 2018 Dec 9.088289 +/- 0.702 TT =  2:07:08 (JD 2458461.588289)
Epoch 2019 Sep  6.0 TT = JDT 2458732.5                        AutoNEOCP
M   0.54456200 +/- 0.0011           (J2000 ecliptic)
n   0.00201010 +/- 9.46e-6          Peri.   98.02958 +/- 0.059
a  62.1808055 +/- 0.194             Node   206.83947 +/- 0.0028
e   0.8902258 +/- 0.000362          Incl.   23.58766 +/- 0.00059
P 490.33                   H 14.0   G  0.15   U  5.0  
q 6.82584564 +/- 0.00117    Q 117.535765 +/- 0.393
From 26 observations 2019 May 29-Sept. 6; mean residual 0".10
Residuals in arcseconds: 
190529 F51  .17-  .06+    190728 F51  .10+  .05+    190828 F51  .01+  .15-    
190529 F51  .01+  .08+    190728 F51  .08-  .01+    190828 F51  .01-  .05+    
190529 F51  .02-  .05-    190728 F51  .00   .15-    190901 807  .01-  .12-    
190529 F51  .14-  .08-    190728 F51  .01-  .19+    190901 807  .01+  .17-    
190601 F51  .05+  .01+    190728 F51  .12+  .10-    190901 807  .02+  .15-    
190601 F51  .27+  .00     190728 F51  .00   .04+    190906 291  .22-  .06+    
190601 F51  .06-  .04-    190728 F51  .02-  .06-    190906 291  .01-  .10+    
190601 F51  .02+  .04+    190828 F51  .01+  .06-    190906 291  .17+  .35+    
190728 F51  .01+  .09+    190828 F51  .02-  .01-    

Ephemerides (geocentric):
Date (UTC) HH   RA              Dec         delta   r     elong  mag " sig PA
---- -- -- --  -------------   -----------  ------ ------ -----  --- ---- ---
2019 09 12 16  21 14 13.142   +08 44 19.94  6.1830 7.0390 145.9 22.6 .050 171
2019 09 12 17  21 14 12.699   +08 44 10.81  6.1833 7.0391 145.9 22.6 .050 171
2019 09 12 18  21 14 12.257   +08 44 01.67  6.1837 7.0391 145.8 22.6 .050 171
2019 09 12 19  21 14 11.815   +08 43 52.53  6.1840 7.0392 145.8 22.6 .051 171
2019 09 12 20  21 14 11.374   +08 43 43.39  6.1843 7.0393 145.8 22.6 .051 171
2019 09 12 21  21 14 10.934   +08 43 34.25  6.1847 7.0393 145.7 22.6 .051 171
2019 09 12 22  21 14 10.494   +08 43 25.10  6.1850 7.0394 145.7 22.6 .051 171
2019 09 12 23  21 14 10.055   +08 43 15.95  6.1853 7.0394 145.7 22.6 .051 171
2019 09 13 00  21 14 09.616   +08 43 06.80  6.1856 7.0395 145.7 22.6 .051 171
2019 09 13 01  21 14 09.178   +08 42 57.65  6.1860 7.0396 145.6 22.6 .051 170
2019 09 13 02  21 14 08.741   +08 42 48.49  6.1863 7.0396 145.6 22.6 .052 170
2019 09 13 03  21 14 08.305   +08 42 39.33  6.1866 7.0397 145.6 22.6 .052 170
2019 09 13 04  21 14 07.869   +08 42 30.17  6.1870 7.0398 145.5 22.6 .052 170
2019 09 13 05  21 14 07.434   +08 42 21.01  6.1873 7.0398 145.5 22.6 .052 170
2019 09 13 06  21 14 06.999   +08 42 11.84  6.1876 7.0399 145.5 22.6 .052 170
2019 09 13 07  21 14 06.565   +08 42 02.67  6.1880 7.0399 145.4 22.6 .052 170
2019 09 13 08  21 14 06.132   +08 41 53.50  6.1883 7.0400 145.4 22.6 .052 170
2019 09 13 09  21 14 05.699   +08 41 44.33  6.1886 7.0401 145.4 22.6 .053 170
2019 09 13 10  21 14 05.268   +08 41 35.16  6.1890 7.0401 145.4 22.6 .053 170
2019 09 13 11  21 14 04.836   +08 41 25.98  6.1893 7.0402 145.3 22.6 .053 170
2019 09 13 12  21 14 04.406   +08 41 16.80  6.1896 7.0403 145.3 22.6 .053 170
2019 09 13 13  21 14 03.976   +08 41 07.62  6.1900 7.0403 145.3 22.6 .053 170
2019 09 13 14  21 14 03.546   +08 40 58.43  6.1903 7.0404 145.2 22.6 .053 170
2019 09 13 15  21 14 03.118   +08 40 49.25  6.1906 7.0404 145.2 22.6 .053 170
2019 09 13 16  21 14 02.690   +08 40 40.06  6.1910 7.0405 145.2 22.6 .054 170
2019 09 13 17  21 14 02.263   +08 40 30.87  6.1913 7.0406 145.2 22.6 .054 170
2019 09 13 18  21 14 01.836   +08 40 21.68  6.1916 7.0406 145.1 22.6 .054 170
2019 09 13 19  21 14 01.410   +08 40 12.48  6.1920 7.0407 145.1 22.6 .054 170
2019 09 13 20  21 14 00.985   +08 40 03.28  6.1923 7.0408 145.1 22.6 .054 170
2019 09 13 21  21 14 00.560   +08 39 54.08  6.1927 7.0408 145.0 22.6 .054 170
2019 09 13 22  21 14 00.136   +08 39 44.88  6.1930 7.0409 145.0 22.6 .054 170
2019 09 13 23  21 13 59.713   +08 39 35.68  6.1933 7.0410 145.0 22.6 .055 170
2019 09 14 00  21 13 59.290   +08 39 26.47  6.1937 7.0410 144.9 22.6 .055 170
2019 09 14 01  21 13 58.868   +08 39 17.26  6.1940 7.0411 144.9 22.6 .055 170
2019 09 14 02  21 13 58.447   +08 39 08.05  6.1943 7.0411 144.9 22.6 .055 170
2019 09 14 03  21 13 58.026   +08 38 58.84  6.1947 7.0412 144.9 22.6 .055 170
2019 09 14 04  21 13 57.606   +08 38 49.62  6.1950 7.0413 144.8 22.6 .055 170
2019 09 14 05  21 13 57.187   +08 38 40.40  6.1954 7.0413 144.8 22.6 .056 170
2019 09 14 06  21 13 56.768   +08 38 31.18  6.1957 7.0414 144.8 22.6 .056 170
2019 09 14 07  21 13 56.350   +08 38 21.96  6.1961 7.0415 144.7 22.6 .056 170
2019 09 14 08  21 13 55.933   +08 38 12.74  6.1964 7.0415 144.7 22.6 .056 170
2019 09 14 09  21 13 55.516   +08 38 03.51  6.1967 7.0416 144.7 22.6 .056 170
2019 09 14 10  21 13 55.100   +08 37 54.28  6.1971 7.0416 144.6 22.6 .056 170
2019 09 14 11  21 13 54.685   +08 37 45.05  6.1974 7.0417 144.6 22.6 .056 170
2019 09 14 12  21 13 54.270   +08 37 35.82  6.1978 7.0418 144.6 22.6 .057 170
2019 09 14 13  21 13 53.856   +08 37 26.59  6.1981 7.0418 144.6 22.6 .057 170
2019 09 14 14  21 13 53.443   +08 37 17.35  6.1985 7.0419 144.5 22.6 .057 170
2019 09 14 15  21 13 53.030   +08 37 08.11  6.1988 7.0420 144.5 22.6 .057 170